Weather in Yekimovka

Russia / Ryazan Oblast     54°28′39″N   39°36′09″E
temp.,
°C
wind,
m/s
gust,
m/s
humid.,
%
clouds,
%
prec.,
mm/h
press.,
hPa
HPBL,
m
4 march, thu
thu400:00−1w6129296 0.1 1010620
03:00−1wsw7159299 0.2 1007618
06:000wsw91593100 0.3 1004662
09:00−1w91686100 0.3 1002895
12:000w81289100 0.0 1001899
15:000w71198100 0.1 1001657
18:00−1wsw51097100 1.0 1001494
21:00−3ne4797100 3.7 1001357
5 march, fri
fri500:00−4nw2294100 0.3 100227
03:00−7nnw3397100 0.4 100445
06:00−10nnw239064 0.0 100621
09:00−9wnw229132 0.0 100747
12:00−5w24900 0.0 1008264
15:00−3wsw369014 0.0 1009589
18:00−7nw348571 0.2 101079
21:00−10wnw348636 0.2 101338
6 march, sat
sat600:00−11wnw23870 0.0 101421
03:00−12wnw23880 0.0 101621
06:00−13wnw23900 0.0 101620
09:00−12nnw24940 0.0 101798
12:00−9n349170 0.0 1017357
15:00−8nnw248077 0.0 1017544
18:00−11wnw238591 0.0 101721
21:00−13w338849 0.0 101721
7 march, sun
sun700:00−13sw47900 0.0 1016112
03:00−12sw612880 0.0 1013260
06:00−9sw8168264 0.0 1009531
09:00−7sw10188182 0.0 1005864
12:00−5sw111892100 0.4 10001214
15:00−3sw111894100 1.6 9961289
18:00−2wnw101593100 2.1 9941090
21:00−7w51378100 2.6 997371
8 march, mon
mon800:00−10wsw612800 0.0 998248
03:00−9wsw5108947 0.0 998247
06:00−8wnw81388100 0.3 998695
09:00−9wnw5109298 0.4 1002600
12:00−8nw7108587 0.0 1005944
15:00−8nw598284 0.1 1007873
18:00−11wnw34870 0.0 100961
21:00−13wnw46910 0.0 101287